Dewpoint
57 56 56 56 56 57 58 58 57 56 55 54 54 54 54 54 53 44 34 35 37 36 40 32 32 31 25 23 19 18 12 15 17 16 15 15 13 14 22 51 56 58 60 60 65
57 57 56 56 56 57 57 58 57 57 56 54 53 53 53 53 47 37 40 38 37 36 31 31 30 31 28 21 19 15 14 13 17 18 17 16 13 12 12 33 55 59 61 63 65
57 57 57 57 56 56 57 57 57 57 56 53 53 54 53 52 38 31 35 38 38 36 31 32 32 31 27 22 19 16 14 15 15 17 18 16 13 13 12 13 54 58 61 62 63
57 57 57 57 57 56 56 56 57 57 56 54 53 53 52 48 10 33 36 38 44 36 32 32 33 31 26 24 23 19 18 17 15 15 16 14 14 13 13 13 31 60 61 61 62
57 57 57 57 57 56 56 56 56 57 56 54 53 52 49 45 40 41 44 43 40 33 31 35 34 32 27 26 23 20 19 20 21 20 18 17 16 15 14 15 41 60 61 61 61
57 57 56 56 56 56 56 55 56 57 56 53 51 51 48 41 43 43 43 43 40 36 34 33 32 35 33 26 24 22 25 25 22 21 19 17 16 17 17 17 29 59 60 61 61
57 57 56 56 56 55 55 55 55 57 56 53 51 49 48 45 47 44 44 45 42 41 37 36 36 36 36 33 31 26 24 26 25 21 19 19 16 15 16 17 24 56 59 59 60
57 57 56 56 55 55 55 55 55 57 55 51 49 48 47 50 50 49 48 47 46 43 41 39 38 36 36 33 29 27 26 23 23 21 21 19 17 18 16 16 16 52 57 58 59
57 56 56 55 55 55 56 56 56 55 53 50 48 47 44 48 46 47 49 47 45 43 41 40 39 36 35 33 29 27 24 24 24 24 22 19 19 20 19 15 15 31 56 57 58
57 56 56 56 56 57 57 55 51 50 50 49 47 44 45 37 42 42 45 47 44 43 40 40 38 33 32 31 26 25 25 25 24 24 25 24 22 18 17 15 14 15 41 55 56
58 57 57 57 57 56 53 54 51 47 47 44 41 41 39 41 39 38 40 42 43 38 33 29 33 29 31 28 28 26 26 26 27 28 27 25 25 26 25 16 14 16 17 41 53
58 57 57 58 57 53 53 52 49 44 43 45 47 44 41 41 41 41 42 38 34 32 33 29 26 29 29 29 27 27 26 27 28 28 28 27 26 27 26 25 23 19 16 18 41
57 57 57 56 52 51 50 51 48 48 44 42 43 43 44 45 42 41 42 39 36 29 29 29 28 29 28 28 27 26 26 26 26 27 29 27 26 26 26 26 25 23 20 18 20
57 56 54 51 50 48 48 49 50 50 39 38 40 41 42 42 39 42 41 40 37 34 30 30 31 31 31 28 27 24 26 27 26 28 27 29 26 28 29 29 29 32 35 32 19
55 53 51 52 48 47 46 50 50 48 29 34 38 43 41 40 39 37 42 41 38 35 32 30 28 30 30 30 29 29 32 31 31 30 29 29 28 28 28 26 32 35 39 43 40
53 52 51 49 47 47 49 51 48 36 27 33 32 34 39 40 38 27 39 40 40 38 38 36 34 36 34 35 33 34 31 29 30 30 28 30 28 27 29 32 35 38 42 44 40
52 51 50 49 46 50 51 46 34 29 33 30 29 30 33 37 38 33 34 37 33 33 34 35 35 37 36 35 35 34 30 31 26 27 27 29 28 28 32 36 37 38 40 43 43
51 50 50 49 48 51 47 39 28 31 32 35 35 32 27 29 34 37 32 29 32 32 31 30 30 33 35 34 33 33 31 30 24 24 24 28 26 28 35 37 37 38 40 41 42
51 49 48 50 50 50 42 31 31 31 33 32 35 31 27 26 31 34 34 33 29 32 31 30 31 29 28 33 34 32 30 34 31 32 29 26 30 34 37 37 37 37 40 41 42
47 46 45 46 51 47 39 34 34 34 35 34 31 34 29 25 25 30 31 31 31 32 33 29 24 25 20 22 22 27 32 31 34 27 26 27 27 29 34 34 35 37 39 42 43
45 41 43 45 49 42 32 34 36 35 36 34 32 34 33 29 28 26 25 29 28 27 29 30 24 23 23 20 18 23 29 35 36 34 28 26 29 33 33 31 30 32 39 39 40
42 33 41 45 36 32 31 35 36 33 36 36 36 32 30 33 31 29 28 31 29 29 26 28 26 22 22 24 24 26 28 34 29 29 32 29 28 33 32 33 32 31 32 37 40
33 33 38 41 30 29 33 36 37 35 36 34 35 34 30 30 31 33 30 31 28 27 28 28 26 22 21 21 30 28 29 29 30 30 26 25 27 34 33 32 31 30 30 30 31
33 29 33 34 32 31 31 31 33 37 37 38 36 34 34 32 33 30 28 28 30 28 30 28 28 24 20 20 26 25 29 29 29 28 29 29 29 31 32 33 34 34 33 31 31
34 30 33 28 30 30 31 30 30 31 33 35 35 35 33 31 28 28 31 32 30 30 29 24 21 24 27 26 27 26 25 28 26 25 25 22 28 29 32 34 35 36 31 32 32
32 30 34 31 32 30 29 28 28 30 30 30 30 31 34 31 30 29 29 33 33 34 29 30 23 24 22 23 27 26 26 26 28 28 29 28 27 29 30 30 33 33 33 32 30
37 35 31 31 30 29 28 28 29 31 31 33 32 30 29 31 33 30 31 30 31 32 34 31 26 24 20 22 24 24 25 28 27 30 29 27 26 27 28 29 29 29 29 27 27
Wind_Speed
10 10 8 8 9 8 9 9 10 13 14 16 20 22 26 28 29 8 10 4 2 3 3 10 7 11 3 2 5 4 5 11 8 7 11 17 15 13 7 7 2 4 14 21 29
12 11 11 10 9 9 9 9 9 11 12 15 18 22 27 28 10 15 6 3 4 8 6 5 9 11 6 4 1 5 6 10 9 12 17 16 9 16 11 8 5 6 16 29 31
14 13 12 11 10 9 9 10 10 11 12 15 19 23 29 21 9 4 3 3 6 6 4 4 7 4 3 3 3 3 14 12 22 22 19 19 6 5 9 10 7 12 29 31 29
15 14 13 12 11 9 9 9 9 10 12 13 17 22 27 4 8 1 3 6 10 7 6 6 6 7 5 6 4 7 14 10 12 8 9 9 6 9 9 20 1 20 30 32 30
16 15 14 12 12 10 10 10 9 9 10 11 14 21 8 5 14 15 12 10 13 7 5 8 9 4 5 10 15 13 10 14 16 23 14 10 12 12 15 16 5 17 22 27 26
17 17 15 13 13 11 9 9 10 9 8 8 9 12 3 15 5 9 8 18 10 8 14 10 5 9 9 5 8 7 20 22 17 21 13 18 15 6 22 13 3 22 26 25 26
18 18 15 15 14 12 10 9 9 7 8 6 7 6 7 27 10 22 25 13 7 12 14 12 8 5 7 10 9 9 20 23 23 15 15 10 13 20 27 19 10 22 26 26 26
17 16 17 17 14 12 10 10 10 8 7 5 5 2 13 12 18 22 24 23 20 16 15 15 13 9 4 7 8 11 10 12 9 12 18 2 19 28 29 18 24 22 24 26 24
18 18 18 17 14 11 9 8 9 6 6 5 4 2 16 10 11 17 21 16 8 9 13 15 9 13 8 9 9 5 15 16 16 12 13 10 15 26 27 21 25 17 25 26 26
19 19 18 17 14 10 7 4 3 2 5 4 5 4 9 12 4 7 9 15 8 5 4 9 7 11 9 14 19 11 10 11 15 8 6 20 21 18 23 21 28 25 24 25 27
22 20 18 14 12 10 8 1 6 5 5 14 12 9 8 4 18 7 5 4 5 3 7 7 12 19 29 24 23 13 20 24 25 33 17 21 14 16 18 11 16 21 17 28 29
24 21 17 15 12 14 6 4 3 3 13 22 28 30 27 15 16 19 11 5 14 19 12 10 25 20 23 16 18 21 24 28 25 24 23 22 21 17 16 13 17 23 26 24 30
22 21 19 18 18 10 8 7 3 0 10 12 22 23 21 28 34 25 11 6 13 20 19 26 10 24 21 21 20 24 23 25 25 23 14 15 21 12 11 9 16 21 25 23 25
20 19 23 25 11 9 6 7 5 4 7 9 7 10 17 14 13 29 32 19 11 24 17 21 23 28 23 22 22 26 22 22 21 17 22 1 20 10 19 23 19 17 19 20 24
24 27 30 15 13 10 7 15 11 2 6 6 7 5 11 20 3 5 26 24 33 18 15 10 7 14 22 24 18 22 19 26 23 14 12 5 15 2 8 14 14 19 23 22 19
30 31 27 6 2 5 16 16 6 4 13 5 11 10 12 17 4 2 7 9 14 19 21 21 12 11 5 14 15 12 14 12 8 5 26 11 12 6 1 3 8 19 21 25 17
31 31 19 13 11 13 20 8 5 9 5 5 5 9 14 10 12 6 13 22 11 16 31 25 33 30 24 24 23 16 4 7 6 9 25 13 15 13 7 10 10 15 20 23 25
32 32 10 8 16 17 14 5 14 12 16 1 1 5 13 10 11 14 11 19 19 15 7 18 9 25 22 33 24 21 19 11 7 8 4 1 9 6 12 11 13 18 19 22 24
24 6 8 7 19 11 15 15 13 10 5 9 2 2 11 12 8 19 24 20 17 25 14 15 10 6 7 15 22 13 25 18 15 13 6 5 4 6 15 14 15 18 22 22 21
7 4 4 12 10 12 17 19 14 7 3 1 12 6 5 8 15 17 16 14 19 25 25 6 6 3 5 9 10 8 12 11 6 7 9 6 12 8 4 15 17 16 13 12 12
5 4 4 12 7 8 9 10 11 8 5 4 6 7 8 3 5 3 6 2 2 3 13 14 7 4 5 5 8 4 8 9 7 5 7 6 4 2 13 17 20 15 13 11 9
4 2 8 7 12 3 6 5 5 7 9 7 5 6 4 3 4 5 4 8 3 1 3 1 4 13 9 2 3 4 7 12 7 7 7 4 7 11 14 12 15 14 13 10 11
5 4 4 3 10 8 2 5 9 5 10 8 13 12 9 7 5 10 12 6 6 3 4 2 1 4 3 3 3 4 6 8 9 3 7 6 4 4 4 6 5 7 6 9 9
4 5 3 4 2 1 4 5 5 13 13 6 4 6 3 12 16 8 7 4 5 4 10 8 2 6 16 4 4 5 6 10 9 6 5 12 9 12 12 7 6 9 11 14 14
1 2 2 6 2 2 3 4 3 4 3 4 4 7 6 7 11 9 3 9 6 5 5 6 13 14 16 11 7 6 10 17 18 21 17 25 25 32 22 18 20 18 23 28 20
8 4 2 4 4 6 3 3 7 3 7 3 3 6 4 1 5 4 5 2 2 9 2 2 12 9 20 17 15 13 24 24 20 21 18 17 21 23 17 9 18 23 24 24 22
1 4 5 6 4 7 9 10 3 1 3 2 5 4 9 1 1 5 8 10 8 5 2 2 7 6 19 12 7 13 34 22 26 11 22 20 31 11 14 19 23 26 23 22 20
Wind_Direction
238 242 249 264 279 289 301 311 327 333 335 338 337 336 331 328 320 332 292 251 211 294 321 324 330 333 25 243 197 109 275 258 249 258 265 295 313 311 358 54 360 348 157 154 140
240 243 246 252 262 276 289 298 313 322 329 337 338 338 335 332 318 307 253 238 316 336 340 345 318 348 325 278 304 163 227 256 234 251 277 279 293 306 334 358 4 50 122 135 146
229 235 243 251 256 267 282 293 304 316 328 339 341 341 333 334 327 279 172 243 298 317 301 299 294 300 258 284 236 205 241 264 282 276 252 268 277 279 309 304 197 183 155 155 156
226 227 237 245 251 261 270 281 296 310 324 338 343 341 328 340 303 40 222 281 312 306 306 309 317 335 300 278 297 303 275 275 286 300 312 271 263 242 244 269 271 184 169 163 165
219 229 227 239 250 254 265 280 285 294 313 335 347 344 354 344 254 290 318 354 329 299 277 316 313 306 293 307 309 280 279 313 302 298 294 270 283 278 258 264 137 165 177 183 173
223 226 226 233 244 254 262 274 286 294 306 333 349 342 4 285 263 282 304 322 300 305 299 297 283 318 276 291 292 304 312 302 302 297 287 280 285 303 276 276 221 170 187 189 185
223 227 230 231 236 246 253 256 266 272 287 308 340 341 256 251 277 294 296 278 264 285 280 272 276 330 327 310 293 302 304 305 286 282 283 296 289 269 266 262 247 185 189 194 197
223 225 230 235 232 238 249 260 266 263 277 310 320 322 268 262 260 264 261 273 262 257 260 270 266 273 227 279 308 309 292 274 274 273 272 248 275 264 263 253 260 194 195 200 197
217 220 225 227 235 235 244 258 263 264 252 274 302 190 279 297 255 259 237 244 258 273 237 246 257 241 259 274 299 247 262 266 293 268 252 199 267 270 261 236 246 216 201 202 204
216 216 221 222 222 221 223 202 214 262 244 236 262 292 250 260 277 293 210 204 236 288 274 220 225 230 201 216 242 238 245 250 263 267 321 298 282 307 271 227 231 242 209 205 209
217 215 214 217 211 173 131 215 281 268 214 203 196 222 272 247 308 283 357 272 205 190 214 198 203 208 218 223 236 265 272 275 272 279 296 287 286 304 311 290 254 231 225 212 214
215 208 203 200 178 156 145 206 211 135 285 230 245 244 253 269 271 272 308 275 205 223 222 239 233 221 231 240 237 246 257 266 277 274 286 273 279 289 288 266 266 271 253 237 215
211 204 188 159 138 143 183 194 82 113 271 255 230 241 233 214 241 237 228 220 238 228 216 226 218 220 221 241 249 251 250 259 262 284 285 300 287 291 276 280 282 259 256 251 219
199 177 150 133 143 157 203 200 113 86 274 274 230 252 212 208 266 232 219 208 220 229 217 248 239 246 249 237 236 253 263 271 272 271 280 353 288 301 299 294 285 358 338 306 249
166 153 149 154 153 163 145 142 135 121 265 198 193 198 175 176 276 190 198 201 221 210 194 219 259 231 232 246 253 262 274 265 269 267 288 276 292 97 314 293 357 350 345 321 293
159 158 156 154 86 120 132 124 108 187 241 270 168 181 150 217 248 62 146 174 209 222 252 254 250 273 233 287 270 291 312 320 296 325 274 241 238 309 7 328 359 13 16 18 17
161 160 166 155 172 156 136 116 166 209 302 232 209 185 198 184 235 202 152 194 186 193 232 251 253 254 255 270 280 275 278 293 257 203 253 196 218 248 128 93 69 46 39 47 54
161 161 173 159 149 156 135 129 219 219 226 42 340 315 204 196 218 224 198 188 209 201 195 211 261 220 215 224 226 232 204 200 226 220 264 71 228 173 123 104 78 66 60 60 71
142 132 146 164 161 166 163 204 220 203 256 250 211 213 223 217 212 201 221 212 209 202 206 203 235 198 174 196 195 236 229 212 250 290 300 220 106 133 140 103 84 78 72 69 65
114 113 90 343 170 177 203 215 218 218 305 296 228 205 253 224 209 190 191 225 223 208 204 234 237 258 119 146 172 171 169 164 172 213 230 222 201 210 180 112 99 88 92 107 93
94 138 18 341 176 224 215 234 216 226 216 240 261 234 242 314 332 285 193 54 134 153 199 229 216 232 134 202 186 177 149 73 131 183 206 192 210 183 134 128 120 124 138 122 116
145 101 354 339 200 227 198 183 293 214 211 241 271 279 222 37 327 311 279 354 29 189 132 357 160 213 200 134 36 95 125 147 162 200 215 195 224 171 152 143 127 117 115 149 173
96 100 337 358 218 220 284 246 233 266 200 209 212 221 246 202 218 244 266 214 182 196 146 145 114 173 271 287 49 146 134 136 119 106 204 194 213 81 112 104 116 131 148 161 180
111 116 52 62 340 92 191 240 242 225 249 280 257 282 243 238 197 232 254 229 236 194 154 135 213 223 235 211 146 170 170 177 173 229 210 228 250 257 242 245 285 293 277 266 244
79 148 165 139 108 31 16 335 244 242 336 27 228 178 185 231 216 231 345 317 283 289 193 187 228 225 241 237 228 217 223 218 217 224 210 253 225 243 223 217 222 236 259 265 261
144 144 130 152 150 152 120 13 354 22 22 11 34 20 103 130 71 112 24 71 350 326 251 230 234 216 251 245 221 229 241 242 218 223 223 248 260 244 231 215 220 236 245 247 251
75 73 141 162 186 194 190 173 190 57 246 320 109 20 14 69 309 286 222 247 248 288 286 232 217 203 255 257 203 230 241 220 225 200 209 223 241 253 232 228 232 240 237 232 240